| time (UTC) | temp C | wind direction | speed KPH | gust KPH | rain 1hr cm | rain 24hr cm | rain mn cm | humidity % | barometer mb |
| 20260904140748 | 8 | 182 | 27.4 | 38.6 | 0.00 | 0.00 | 0.00 | 94 | 730.8 |
| 20260904140246 | 8 | 181 | 27.4 | 45.1 | 0.00 | 0.00 | 0.00 | 94 | 730.8 |
| 20260904135747 | 8 | 183 | 27.4 | 41.8 | 0.00 | 0.00 | 0.00 | 95 | 730.4 |
| 20260904135245 | 8 | 183 | 29.0 | 40.2 | 0.00 | 0.00 | 0.00 | 95 | 730.4 |
| 20260904134745 | 8 | 184 | 27.4 | 41.8 | 0.00 | 0.00 | 0.00 | 96 | 730.4 |
| 20260904134251 | 8 | 183 | 30.6 | 41.8 | 0.00 | 0.00 | 0.00 | 97 | 730.4 |
| 20260904133747 | 8 | 184 | 27.4 | 40.2 | 0.00 | 0.00 | 0.00 | 97 | 730.4 |
| 20260904133245 | 8 | 183 | 30.6 | 45.1 | 0.00 | 0.00 | 0.00 | 95 | 730.4 |
| 20260904132744 | 8 | 186 | 32.2 | 45.1 | 0.00 | 0.00 | 0.00 | 95 | 730.4 |
| 20260904132244 | 9 | 186 | 32.2 | 46.7 | 0.00 | 0.00 | 0.00 | 95 | 730.1 |
| 20260904131748 | 9 | 188 | 33.8 | 48.3 | 0.00 | 0.00 | 0.00 | 95 | 730.1 |
| 20260904131247 | 9 | 187 | 33.8 | 51.5 | 0.00 | 0.00 | 0.00 | 94 | 730.1 |
| 20260904130745 | 9 | 187 | 37.0 | 48.3 | 0.00 | 0.00 | 0.00 | 93 | 729.8 |
| 20260904130248 | 9 | 188 | 35.4 | 49.9 | 0.00 | 0.00 | 0.00 | 92 | 729.8 |
| 20260904125748 | 9 | 187 | 35.4 | 53.1 | 0.00 | 0.00 | 0.00 | 92 | 729.8 |
| 20260904125245 | 9 | 187 | 35.4 | 49.9 | 0.00 | 0.00 | 0.00 | 93 | 729.8 |
| 20260904124745 | 9 | 188 | 35.4 | 49.9 | 0.00 | 0.00 | 0.00 | 92 | 729.8 |
| 20260904124245 | 9 | 186 | 33.8 | 46.7 | 0.00 | 0.00 | 0.00 | 91 | 729.8 |
| 20260904123746 | 9 | 185 | 33.8 | 51.5 | 0.00 | 0.00 | 0.00 | 89 | 729.8 |
| 20260904123244 | 9 | 187 | 35.4 | 45.1 | 0.00 | 0.00 | 0.00 | 87 | 729.8 |
| 20260904122744 | 9 | 187 | 37.0 | 48.3 | 0.00 | 0.00 | 0.00 | 87 | 729.8 |
| 20260904122247 | 9 | 187 | 33.8 | 48.3 | 0.00 | 0.00 | 0.00 | 86 | 729.4 |
| 20260904121744 | 10 | 187 | 37.0 | 49.9 | 0.00 | 0.00 | 0.00 | 78 | 729.4 |
| 20260904121248 | 10 | 188 | 33.8 | 49.9 | 0.00 | 0.00 | 0.00 | 77 | 729.8 |
| 20260904120744 | 10 | 188 | 35.4 | 51.5 | 0.00 | 0.00 | 0.00 | 79 | 729.8 |
| 20260904120244 | 10 | 186 | 35.4 | 48.3 | 0.00 | 0.00 | 0.00 | 78 | 729.8 |
| 20260904115745 | 10 | 186 | 37.0 | 53.1 | 0.00 | 0.00 | 0.00 | 75 | 729.8 |
| 20260904115245 | 10 | 187 | 37.0 | 49.9 | 0.00 | 0.00 | 0.00 | 71 | 729.4 |
| 20260904114744 | 10 | 186 | 35.4 | 48.3 | 0.00 | 0.00 | 0.00 | 67 | 729.4 |
| 20260904114244 | 10 | 186 | 37.0 | 49.9 | 0.00 | 0.00 | 0.00 | 66 | 729.4 |
| 20260904113745 | 10 | 187 | 38.6 | 57.9 | 0.00 | 0.00 | 0.00 | 65 | 729.4 |
| 20260904113245 | 10 | 186 | 37.0 | 51.5 | 0.00 | 0.00 | 0.00 | 64 | 729.4 |
| 20260904112748 | 10 | 187 | 40.2 | 53.1 | 0.00 | 0.00 | 0.00 | 59 | 729.4 |
| 20260904112247 | 10 | 187 | 38.6 | 54.7 | 0.00 | 0.00 | 0.00 | 56 | 729.4 |
| 20260904111745 | 10 | 186 | 40.2 | 54.7 | 0.00 | 0.00 | 0.00 | 55 | 729.4 |
| 20260904111245 | 10 | 188 | 40.2 | 59.5 | 0.00 | 0.00 | 0.00 | 53 | 729.4 |
| 20260904110745 | 10 | 187 | 40.2 | 53.1 | 0.00 | 0.00 | 0.00 | 52 | 729.4 |
| 20260904110244 | 10 | 188 | 38.6 | 53.1 | 0.00 | 0.00 | 0.00 | 54 | 729.4 |
| 20260904105745 | 10 | 188 | 40.2 | 51.5 | 0.00 | 0.00 | 0.00 | 50 | 729.4 |
| 20260904105244 | 10 | 188 | 38.6 | 51.5 | 0.00 | 0.00 | 0.00 | 50 | 729.4 |
| 20260904104748 | 10 | 188 | 38.6 | 51.5 | 0.00 | 0.00 | 0.00 | 49 | 729.4 |
| 20260904104244 | 10 | 187 | 37.0 | 49.9 | 0.00 | 0.00 | 0.00 | 48 | 729.4 |
| 20260904103744 | 10 | 187 | 40.2 | 49.9 | 0.00 | 0.00 | 0.00 | 46 | 729.4 |
| 20260904103248 | 10 | 188 | 38.6 | 53.1 | 0.00 | 0.00 | 0.00 | 44 | 729.4 |
| 20260904102748 | 11 | 188 | 40.2 | 53.1 | 0.00 | 0.00 | 0.00 | 46 | 729.4 |
| 20260904102248 | 11 | 186 | 38.6 | 53.1 | 0.00 | 0.00 | 0.00 | 45 | 729.4 |
| 20260904101745 | 11 | 188 | 38.6 | 51.5 | 0.00 | 0.00 | 0.00 | 45 | 729.4 |
| 20260904101245 | 11 | 187 | 40.2 | 53.1 | 0.00 | 0.00 | 0.00 | 47 | 729.4 |
| 20260904100745 | 11 | 187 | 38.6 | 51.5 | 0.00 | 0.00 | 0.00 | 49 | 729.4 |
| 20260904100245 | 11 | 187 | 38.6 | 53.1 | 0.00 | 0.00 | 0.00 | 46 | 729.4 |
| 20260904095745 | 11 | 188 | 37.0 | 49.9 | 0.00 | 0.00 | 0.00 | 47 | 729.4 |
| 20260904095244 | 11 | 188 | 37.0 | 51.5 | 0.00 | 0.00 | 0.00 | 46 | 729.4 |
| 20260904094747 | 11 | 187 | 37.0 | 49.9 | 0.00 | 0.00 | 0.00 | 46 | 729.8 |
| 20260904094244 | 11 | 187 | 37.0 | 53.1 | 0.00 | 0.00 | 0.00 | 45 | 729.8 |
| 20260904093747 | 11 | 187 | 40.2 | 54.7 | 0.00 | 0.00 | 0.00 | 43 | 729.4 |
| 20260904093247 | 11 | 186 | 38.6 | 51.5 | 0.00 | 0.00 | 0.00 | 45 | 729.8 |
| 20260904092744 | 11 | 186 | 40.2 | 51.5 | 0.00 | 0.00 | 0.00 | 44 | 729.4 |
| 20260904092245 | 11 | 187 | 38.6 | 51.5 | 0.00 | 0.00 | 0.00 | 46 | 729.8 |
| 20260904091744 | 11 | 186 | 40.2 | 54.7 | 0.00 | 0.00 | 0.00 | 49 | 729.8 |
| 20260904091246 | 11 | 185 | 40.2 | 54.7 | 0.00 | 0.00 | 0.00 | 51 | 729.8 |
| 20260904090744 | 11 | 186 | 38.6 | 57.9 | 0.00 | 0.00 | 0.00 | 52 | 729.8 |
| 20260904090244 | 11 | 186 | 40.2 | 53.1 | 0.00 | 0.00 | 0.00 | 54 | 729.8 |
| 20260904085747 | 11 | 187 | 38.6 | 53.1 | 0.00 | 0.00 | 0.00 | 55 | 729.8 |
| 20260904085251 | 11 | 187 | 38.6 | 54.7 | 0.00 | 0.00 | 0.00 | 58 | 729.8 |
| 20260904084747 | 10 | 186 | 38.6 | 48.3 | 0.00 | 0.00 | 0.00 | 58 | 729.8 |
| 20260904084244 | 10 | 186 | 37.0 | 49.9 | 0.00 | 0.00 | 0.00 | 57 | 729.8 |
| 20260904083745 | 11 | 185 | 38.6 | 56.3 | 0.00 | 0.00 | 0.00 | 59 | 729.8 |
| 20260904083246 | 11 | 187 | 38.6 | 48.3 | 0.00 | 0.00 | 0.00 | 59 | 729.8 |
| 20260904082748 | 11 | 187 | 38.6 | 51.5 | 0.00 | 0.00 | 0.00 | 59 | 729.8 |
| 20260904082246 | 11 | 186 | 38.6 | 56.3 | 0.00 | 0.00 | 0.00 | 60 | 730.1 |
| 20260904081748 | 11 | 188 | 38.6 | 53.1 | 0.00 | 0.00 | 0.00 | 61 | 730.1 |
| 20260904081244 | 11 | 186 | 40.2 | 49.9 | 0.00 | 0.00 | 0.00 | 62 | 730.1 |
| 20260904080750 | 11 | 187 | 38.6 | 53.1 | 0.00 | 0.00 | 0.00 | 62 | 730.1 |
| 20260904080245 | 11 | 186 | 40.2 | 53.1 | 0.00 | 0.00 | 0.00 | 63 | 730.1 |
| 20260904075744 | 11 | 186 | 40.2 | 51.5 | 0.00 | 0.00 | 0.00 | 65 | 730.1 |
| 20260904075244 | 11 | 187 | 40.2 | 54.7 | 0.00 | 0.00 | 0.00 | 66 | 730.1 |
| 20260904074745 | 11 | 187 | 41.8 | 54.7 | 0.00 | 0.00 | 0.00 | 67 | 730.1 |
| 20260904074248 | 11 | 187 | 38.6 | 53.1 | 0.00 | 0.00 | 0.00 | 69 | 730.4 |
| 20260904073748 | 11 | 188 | 38.6 | 54.7 | 0.00 | 0.00 | 0.00 | 70 | 730.1 |
| 20260904073244 | 11 | 187 | 37.0 | 49.9 | 0.00 | 0.00 | 0.00 | 71 | 730.4 |
| 20260904072748 | 11 | 188 | 35.4 | 51.5 | 0.00 | 0.00 | 0.00 | 72 | 730.4 |
| 20260904072244 | 11 | 188 | 38.6 | 51.5 | 0.00 | 0.00 | 0.00 | 72 | 730.4 |
| 20260904071744 | 11 | 184 | 37.0 | 53.1 | 0.00 | 0.00 | 0.00 | 73 | 730.4 |
| 20260904071245 | 11 | 188 | 35.4 | 51.5 | 0.00 | 0.00 | 0.00 | 72 | 730.1 |
| 20260904070744 | 11 | 187 | 40.2 | 53.1 | 0.00 | 0.00 | 0.00 | 74 | 730.4 |
| 20260904070248 | 11 | 189 | 38.6 | 54.7 | 0.00 | 0.00 | 0.00 | 75 | 730.4 |
| 20260904065747 | 11 | 187 | 40.2 | 54.7 | 0.00 | 0.00 | 0.00 | 75 | 730.4 |
| 20260904065248 | 11 | 187 | 40.2 | 54.7 | 0.00 | 0.00 | 0.00 | 77 | 730.4 |
| 20260904064748 | 11 | 188 | 38.6 | 54.7 | 0.00 | 0.00 | 0.00 | 77 | 730.1 |
| 20260904064248 | 11 | 187 | 40.2 | 56.3 | 0.00 | 0.00 | 0.00 | 77 | 730.4 |
| 20260904063744 | 11 | 187 | 40.2 | 53.1 | 0.00 | 0.00 | 0.00 | 78 | 730.4 |
| 20260904063244 | 11 | 188 | 37.0 | 54.7 | 0.00 | 0.00 | 0.00 | 78 | 730.4 |
| 20260904062744 | 11 | 188 | 38.6 | 53.1 | 0.00 | 0.00 | 0.00 | 78 | 730.4 |
| 20260904062247 | 11 | 187 | 37.0 | 54.7 | 0.00 | 0.00 | 0.00 | 79 | 730.4 |
| 20260904061744 | 11 | 187 | 38.6 | 51.5 | 0.00 | 0.00 | 0.00 | 79 | 730.4 |
| 20260904061248 | 11 | 188 | 38.6 | 54.7 | 0.00 | 0.00 | 0.00 | 77 | 730.4 |
| 20260904060750 | 11 | 187 | 38.6 | 56.3 | 0.00 | 0.00 | 0.00 | 78 | 730.4 |
| 20260904060245 | 11 | 187 | 40.2 | 56.3 | 0.00 | 0.00 | 0.00 | 80 | 730.4 |
| 20260904055744 | 11 | 187 | 40.2 | 53.1 | 0.00 | 0.00 | 0.00 | 81 | 730.4 |
| 20260904055244 | 11 | 186 | 38.6 | 51.5 | 0.00 | 0.00 | 0.00 | 83 | 730.4 |
| 20260904054744 | 11 | 185 | 40.2 | 49.9 | 0.00 | 0.00 | 0.00 | 83 | 730.4 |
| 20260904054247 | 10 | 186 | 37.0 | 48.3 | 0.00 | 0.00 | 0.00 | 84 | 730.8 |
| 20260904053744 | 10 | 185 | 35.4 | 48.3 | 0.00 | 0.00 | 0.00 | 83 | 730.8 |
| 20260904053244 | 10 | 184 | 35.4 | 49.9 | 0.00 | 0.00 | 0.00 | 83 | 730.4 |
| 20260904052748 | 11 | 185 | 35.4 | 48.3 | 0.00 | 0.00 | 0.00 | 83 | 730.8 |
| 20260904052245 | 11 | 185 | 35.4 | 53.1 | 0.00 | 0.00 | 0.00 | 82 | 730.8 |
| 20260904051747 | 11 | 185 | 35.4 | 48.3 | 0.00 | 0.00 | 0.00 | 79 | 730.8 |
| 20260904051244 | 11 | 186 | 35.4 | 49.9 | 0.00 | 0.00 | 0.00 | 78 | 730.8 |
| 20260904050744 | 11 | 186 | 33.8 | 51.5 | 0.00 | 0.00 | 0.00 | 77 | 730.8 |
| 20260904050248 | 11 | 184 | 33.8 | 49.9 | 0.00 | 0.00 | 0.00 | 77 | 730.8 |
| 20260904045747 | 11 | 183 | 32.2 | 51.5 | 0.00 | 0.00 | 0.00 | 74 | 730.8 |
| 20260904045244 | 11 | 183 | 32.2 | 51.5 | 0.00 | 0.00 | 0.00 | 75 | 730.8 |
| 20260904044745 | 11 | 184 | 37.0 | 49.9 | 0.00 | 0.00 | 0.00 | 74 | 730.8 |
| 20260904044244 | 11 | 185 | 37.0 | 46.7 | 0.00 | 0.00 | 0.00 | 74 | 730.8 |
| 20260904043744 | 11 | 187 | 35.4 | 49.9 | 0.00 | 0.00 | 0.00 | 75 | 730.8 |
| 20260904043245 | 11 | 187 | 35.4 | 45.1 | 0.00 | 0.00 | 0.00 | 76 | 730.4 |
| 20260904042744 | 10 | 188 | 33.8 | 46.7 | 0.00 | 0.00 | 0.00 | 77 | 730.8 |
| 20260904042245 | 10 | 189 | 32.2 | 46.7 | 0.00 | 0.00 | 0.00 | 77 | 730.8 |
| 20260904041745 | 10 | 190 | 30.6 | 45.1 | 0.00 | 0.00 | 0.00 | 76 | 730.8 |
| 20260904041247 | 10 | 191 | 29.0 | 48.3 | 0.00 | 0.00 | 0.00 | 74 | 730.8 |
| 20260904040745 | 10 | 190 | 30.6 | 45.1 | 0.00 | 0.00 | 0.00 | 73 | 730.8 |
| 20260904040244 | 10 | 188 | 32.2 | 40.2 | 0.00 | 0.00 | 0.00 | 71 | 730.8 |
| 20260904035748 | 10 | 189 | 29.0 | 40.2 | 0.00 | 0.00 | 0.00 | 71 | 730.8 |
| 20260904035244 | 10 | 187 | 29.0 | 41.8 | 0.00 | 0.00 | 0.00 | 70 | 730.4 |
| 20260904034750 | 10 | 190 | 25.7 | 38.6 | 0.00 | 0.00 | 0.00 | 68 | 730.8 |
| 20260904034248 | 10 | 190 | 24.1 | 38.6 | 0.00 | 0.00 | 0.00 | 65 | 730.8 |
| 20260904033750 | 10 | 188 | 24.1 | 40.2 | 0.00 | 0.00 | 0.00 | 63 | 730.4 |
| 20260904033250 | 11 | 188 | 24.1 | 32.2 | 0.00 | 0.00 | 0.00 | 58 | 730.8 |
| 20260904032745 | 11 | 186 | 24.1 | 35.4 | 0.00 | 0.00 | 0.00 | 54 | 730.8 |
| 20260904032244 | 11 | 187 | 22.5 | 33.8 | 0.00 | 0.00 | 0.00 | 52 | 730.8 |
| 20260904031750 | 11 | 187 | 20.9 | 32.2 | 0.00 | 0.00 | 0.00 | 46 | 730.8 |
| 20260904031244 | 11 | 189 | 20.9 | 30.6 | 0.00 | 0.00 | 0.00 | 38 | 730.8 |
| 20260904030744 | 11 | 186 | 22.5 | 30.6 | 0.00 | 0.00 | 0.00 | 41 | 730.8 |
| 20260904030245 | 11 | 186 | 20.9 | 27.4 | 0.00 | 0.00 | 0.00 | 42 | 730.8 |
| 20260904025745 | 11 | 187 | 19.3 | 27.4 | 0.00 | 0.00 | 0.00 | 44 | 730.8 |
| 20260904025250 | 11 | 185 | 19.3 | 22.5 | 0.00 | 0.00 | 0.00 | 50 | 730.8 |
| 20260904024744 | 12 | 187 | 16.1 | 22.5 | 0.00 | 0.00 | 0.00 | 52 | 731.1 |
| 20260904024248 | 12 | 187 | 16.1 | 24.1 | 0.00 | 0.00 | 0.00 | 53 | 731.1 |
| 20260904023744 | 12 | 187 | 12.9 | 20.9 | 0.00 | 0.00 | 0.00 | 49 | 731.1 |
| 20260904023244 | 12 | 196 | 11.3 | 19.3 | 0.00 | 0.00 | 0.00 | 50 | 731.1 |
| 20260904022745 | 12 | 190 | 11.3 | 20.9 | 0.00 | 0.00 | 0.00 | 55 | 731.1 |
| 20260904022245 | 12 | 189 | 9.7 | 16.1 | 0.00 | 0.00 | 0.00 | 54 | 731.1 |
| 20260904021745 | 12 | 193 | 8.0 | 16.1 | 0.00 | 0.00 | 0.00 | 54 | 731.1 |
| 20260904021253 | 12 | 192 | 8.0 | 14.5 | 0.00 | 0.00 | 0.00 | 51 | 731.4 |
| 20260904020745 | 12 | 196 | 8.0 | 16.1 | 0.00 | 0.00 | 0.00 | 52 | 731.4 |
| 20260904020244 | 13 | 198 | 6.4 | 12.9 | 0.00 | 0.00 | 0.00 | 49 | 731.4 |
| 20260904015748 | 13 | 193 | 8.0 | 12.9 | 0.00 | 0.00 | 0.00 | 48 | 731.4 |
| 20260904015244 | 13 | 202 | 6.4 | 16.1 | 0.00 | 0.00 | 0.00 | 46 | 731.4 |
| 20260904014744 | 13 | 191 | 8.0 | 14.5 | 0.00 | 0.00 | 0.00 | 45 | 731.4 |
| 20260904014245 | 13 | 202 | 6.4 | 12.9 | 0.00 | 0.00 | 0.00 | 46 | 731.4 |
| 20260904013748 | 13 | 187 | 8.0 | 14.5 | 0.00 | 0.00 | 0.00 | 46 | 731.4 |
| 20260904013244 | 13 | 197 | 6.4 | 16.1 | 0.00 | 0.00 | 0.00 | 49 | 731.4 |
| 20260904012744 | 13 | 183 | 8.0 | 14.5 | 0.00 | 0.00 | 0.00 | 50 | 731.4 |
| 20260904012245 | 13 | 189 | 8.0 | 14.5 | 0.00 | 0.00 | 0.00 | 50 | 731.4 |
| 20260904011748 | 14 | 194 | 8.0 | 22.5 | 0.00 | 0.00 | 0.00 | 48 | 731.4 |
| 20260904011244 | 14 | 180 | 11.3 | 17.7 | 0.00 | 0.00 | 0.00 | 47 | 731.4 |
| 20260904010744 | 14 | 189 | 8.0 | 16.1 | 0.00 | 0.00 | 0.00 | 49 | 731.4 |
| 20260904010248 | 15 | 185 | 8.0 | 16.1 | 0.00 | 0.00 | 0.00 | 50 | 731.4 |
| 20260904005744 | 15 | 189 | 6.4 | 17.7 | 0.00 | 0.00 | 0.00 | 49 | 731.4 |
| 20260904005244 | 14 | 178 | 8.0 | 19.3 | 0.00 | 0.00 | 0.00 | 51 | 731.4 |
| 20260904004745 | 15 | 211 | 9.7 | 19.3 | 0.00 | 0.00 | 0.00 | 48 | 731.4 |
| 20260904004245 | 15 | 189 | 9.7 | 16.1 | 0.00 | 0.00 | 0.00 | 48 | 731.4 |
| 20260904003747 | 15 | 203 | 8.0 | 17.7 | 0.00 | 0.00 | 0.00 | 48 | 731.4 |
| 20260904003245 | 15 | 191 | 8.0 | 20.9 | 0.00 | 0.00 | 0.00 | 47 | 731.4 |
| 20260904002744 | 15 | 199 | 8.0 | 17.7 | 0.00 | 0.00 | 0.00 | 47 | 731.4 |
| 20260904002248 | 15 | 200 | 8.0 | 19.3 | 0.00 | 0.00 | 0.00 | 47 | 731.4 |
| 20260904001744 | 15 | 202 | 11.3 | 24.1 | 0.00 | 0.00 | 0.00 | 47 | 731.4 |
| 20260904001244 | 15 | 206 | 8.0 | 17.7 | 0.00 | 0.00 | 0.00 | 45 | 731.4 |
| 20260904000744 | 15 | 218 | 6.4 | 25.7 | 0.00 | 0.00 | 0.00 | 45 | 731.4 |
| 20260904000244 | 15 | 204 | 8.0 | 24.1 | 0.00 | 0.00 | 0.00 | 47 | 731.4 |
| 20260903235747 | 15 | 195 | 9.7 | 22.5 | 0.00 | 0.00 | 0.00 | 47 | 731.4 |
| 20260903235244 | 16 | 215 | 4.8 | 16.1 | 0.00 | 0.00 | 0.00 | 47 | 731.4 |
| 20260903234744 | 15 | 202 | 3.2 | 24.1 | 0.00 | 0.00 | 0.00 | 45 | 731.4 |
| 20260903234245 | 15 | 184 | 14.5 | 29.0 | 0.00 | 0.00 | 0.00 | 45 | 731.4 |
| 20260903233747 | 16 | 189 | 11.3 | 20.9 | 0.00 | 0.00 | 0.00 | 47 | 731.4 |
| 20260903233245 | 15 | 202 | 6.4 | 24.1 | 0.00 | 0.00 | 0.00 | 47 | 731.4 |
| 20260903232745 | 15 | 188 | 14.5 | 24.1 | 0.00 | 0.00 | 0.00 | 50 | 731.4 |
| 20260903232248 | 16 | 188 | 11.3 | 22.5 | 0.00 | 0.00 | 0.00 | 48 | 731.4 |
| 20260903231748 | 16 | 204 | 9.7 | 24.1 | 0.00 | 0.00 | 0.00 | 49 | 731.8 |
| 20260903231248 | 16 | 203 | 9.7 | 24.1 | 0.00 | 0.00 | 0.00 | 48 | 731.4 |
| 20260903230751 | 16 | 201 | 11.3 | 22.5 | 0.00 | 0.00 | 0.00 | 48 | 731.8 |
| 20260903230245 | 16 | 210 | 8.0 | 24.1 | 0.00 | 0.00 | 0.00 | 49 | 731.8 |
| 20260903225744 | 16 | 200 | 12.9 | 27.4 | 0.00 | 0.00 | 0.00 | 49 | 731.8 |
| 20260903225244 | 16 | 210 | 8.0 | 33.8 | 0.00 | 0.00 | 0.00 | 53 | 731.8 |
| 20260903224748 | 16 | 191 | 19.3 | 32.2 | 0.00 | 0.00 | 0.00 | 57 | 731.8 |
| 20260903224247 | 16 | 195 | 17.7 | 35.4 | 0.00 | 0.00 | 0.00 | 57 | 731.8 |
| 20260903223747 | 16 | 186 | 19.3 | 29.0 | 0.00 | 0.00 | 0.00 | 57 | 731.8 |
| 20260903223247 | 15 | 197 | 12.9 | 37.0 | 0.00 | 0.00 | 0.00 | 56 | 731.8 |
| 20260903222745 | 15 | 193 | 17.7 | 37.0 | 0.00 | 0.00 | 0.00 | 58 | 731.8 |
| 20260903222244 | 16 | 201 | 16.1 | 32.2 | 0.00 | 0.00 | 0.00 | 59 | 731.8 |
| 20260903221744 | 16 | 198 | 12.9 | 33.8 | 0.00 | 0.00 | 0.00 | 58 | 731.8 |
| 20260903221250 | 16 | 189 | 17.7 | 30.6 | 0.00 | 0.00 | 0.00 | 57 | 732.1 |
| 20260903220747 | 16 | 190 | 17.7 | 37.0 | 0.00 | 0.00 | 0.00 | 51 | 732.1 |
| 20260903220244 | 16 | 199 | 14.5 | 30.6 | 0.00 | 0.00 | 0.00 | 56 | 732.1 |
| 20260903215744 | 16 | 195 | 17.7 | 35.4 | 0.00 | 0.00 | 0.00 | 52 | 732.1 |
| 20260903215244 | 16 | 192 | 14.5 | 27.4 | 0.00 | 0.00 | 0.00 | 52 | 732.1 |
| 20260903214745 | 16 | 208 | 12.9 | 37.0 | 0.00 | 0.00 | 0.00 | 50 | 732.1 |
| 20260903214245 | 16 | 222 | 8.0 | 37.0 | 0.00 | 0.00 | 0.00 | 52 | 732.1 |
| 20260903213744 | 16 | 196 | 19.3 | 33.8 | 0.00 | 0.00 | 0.00 | 50 | 732.1 |
| 20260903213245 | 16 | 210 | 11.3 | 24.1 | 0.00 | 0.00 | 0.00 | 50 | 732.1 |
| 20260903212745 | 16 | 207 | 8.0 | 25.7 | 0.00 | 0.00 | 0.00 | 47 | 732.1 |
| 20260903212244 | 16 | 188 | 11.3 | 29.0 | 0.00 | 0.00 | 0.00 | 48 | 732.1 |
| 20260903211747 | 16 | 185 | 16.1 | 37.0 | 0.00 | 0.00 | 0.00 | 49 | 732.1 |
| 20260903211250 | 16 | 195 | 16.1 | 29.0 | 0.00 | 0.00 | 0.00 | 48 | 732.1 |
| 20260903210744 | 16 | 182 | 16.1 | 38.6 | 0.00 | 0.00 | 0.00 | 49 | 732.1 |
| 20260903210250 | 16 | 193 | 17.7 | 37.0 | 0.00 | 0.00 | 0.00 | 49 | 732.1 |
| 20260903205744 | 15 | 199 | 9.7 | 30.6 | 0.00 | 0.00 | 0.00 | 50 | 732.5 |
| 20260903205244 | 16 | 195 | 17.7 | 35.4 | 0.00 | 0.00 | 0.00 | 48 | 732.1 |
| 20260903204745 | 16 | 200 | 16.1 | 29.0 | 0.00 | 0.00 | 0.00 | 48 | 732.1 |
| 20260903204244 | 16 | 190 | 17.7 | 32.2 | 0.00 | 0.00 | 0.00 | 50 | 732.5 |
| 20260903203744 | 15 | 203 | 11.3 | 37.0 | 0.00 | 0.00 | 0.00 | 50 | 732.5 |
| 20260903203246 | 16 | 189 | 22.5 | 37.0 | 0.00 | 0.00 | 0.00 | 50 | 732.1 |
| 20260903202748 | 15 | 196 | 14.5 | 41.8 | 0.00 | 0.00 | 0.00 | 50 | 732.5 |
| 20260903202244 | 15 | 186 | 24.1 | 41.8 | 0.00 | 0.00 | 0.00 | 50 | 732.1 |
| 20260903201749 | 15 | 189 | 24.1 | 35.4 | 0.00 | 0.00 | 0.00 | 50 | 732.1 |
| 20260903201245 | 15 | 190 | 16.1 | 35.4 | 0.00 | 0.00 | 0.00 | 50 | 732.5 |
| 20260903200747 | 16 | 197 | 14.5 | 33.8 | 0.00 | 0.00 | 0.00 | 49 | 732.5 |
| 20260903200244 | 16 | 186 | 16.1 | 33.8 | 0.00 | 0.00 | 0.00 | 47 | 732.5 |
| 20260903195744 | 16 | 186 | 17.7 | 35.4 | 0.00 | 0.00 | 0.00 | 47 | 732.5 |
| 20260903195248 | 16 | 186 | 17.7 | 35.4 | 0.00 | 0.00 | 0.00 | 49 | 732.5 |
| 20260903194750 | 15 | 194 | 14.5 | 45.1 | 0.00 | 0.00 | 0.00 | 50 | 732.5 |
| 20260903194244 | 16 | 194 | 17.7 | 37.0 | 0.00 | 0.00 | 0.00 | 49 | 732.5 |
| 20260903193744 | 16 | 190 | 14.5 | 30.6 | 0.00 | 0.00 | 0.00 | 47 | 732.5 |
| 20260903193247 | 15 | 188 | 16.1 | 37.0 | 0.00 | 0.00 | 0.00 | 48 | 732.5 |
| 20260903192747 | 15 | 190 | 19.3 | 37.0 | 0.00 | 0.00 | 0.00 | 50 | 732.8 |
| 20260903192244 | 15 | 186 | 17.7 | 33.8 | 0.00 | 0.00 | 0.00 | 50 | 732.8 |
| 20260903191744 | 15 | 187 | 20.9 | 40.2 | 0.00 | 0.00 | 0.00 | 51 | 732.5 |
| 20260903191250 | 15 | 189 | 20.9 | 40.2 | 0.00 | 0.00 | 0.00 | 51 | 732.8 |
| 20260903190748 | 15 | 181 | 19.3 | 43.5 | 0.00 | 0.00 | 0.00 | 51 | 732.8 |
| 20260903190248 | 15 | 187 | 19.3 | 45.1 | 0.00 | 0.00 | 0.00 | 52 | 732.8 |
| 20260903185744 | 15 | 190 | 11.3 | 40.2 | 0.00 | 0.00 | 0.00 | 51 | 732.8 |
| 20260903185247 | 15 | 191 | 20.9 | 38.6 | 0.00 | 0.00 | 0.00 | 50 | 732.8 |
| 20260903184744 | 15 | 188 | 22.5 | 40.2 | 0.00 | 0.00 | 0.00 | 50 | 732.5 |
| 20260903184244 | 15 | 191 | 22.5 | 40.2 | 0.00 | 0.00 | 0.00 | 52 | 732.8 |
| 20260903183744 | 15 | 185 | 19.3 | 40.2 | 0.00 | 0.00 | 0.00 | 51 | 732.8 |
| 20260903183248 | 15 | 197 | 22.5 | 38.6 | 0.00 | 0.00 | 0.00 | 51 | 732.8 |
| 20260903182750 | 14 | 183 | 17.7 | 40.2 | 0.00 | 0.00 | 0.00 | 50 | 732.8 |
| 20260903182245 | 15 | 190 | 22.5 | 40.2 | 0.00 | 0.00 | 0.00 | 49 | 732.8 |
| 20260903181747 | 15 | 191 | 19.3 | 45.1 | 0.00 | 0.00 | 0.00 | 50 | 732.8 |
| 20260903181244 | 15 | 191 | 19.3 | 33.8 | 0.00 | 0.00 | 0.00 | 50 | 733.1 |
| 20260903180744 | 15 | 197 | 20.9 | 37.0 | 0.00 | 0.00 | 0.00 | 51 | 733.1 |
| 20260903180247 | 14 | 190 | 22.5 | 41.8 | 0.00 | 0.00 | 0.00 | 49 | 733.1 |
| 20260903175745 | 15 | 185 | 22.5 | 35.4 | 0.00 | 0.00 | 0.00 | 51 | 732.8 |
| 20260903175244 | 15 | 187 | 19.3 | 40.2 | 0.00 | 0.00 | 0.00 | 51 | 732.8 |
| 20260903174745 | 15 | 186 | 17.7 | 33.8 | 0.00 | 0.00 | 0.00 | 52 | 732.8 |
| 20260903174247 | 14 | 189 | 17.7 | 35.4 | 0.00 | 0.00 | 0.00 | 53 | 732.8 |
| 20260903173744 | 14 | 189 | 17.7 | 38.6 | 0.00 | 0.00 | 0.00 | 52 | 732.8 |
| 20260903173244 | 14 | 183 | 20.9 | 37.0 | 0.00 | 0.00 | 0.00 | 52 | 732.8 |
| 20260903172745 | 14 | 184 | 19.3 | 40.2 | 0.00 | 0.00 | 0.00 | 56 | 732.8 |
| 20260903172247 | 14 | 196 | 17.7 | 33.8 | 0.00 | 0.00 | 0.00 | 56 | 732.8 |
| 20260903171744 | 13 | 188 | 20.9 | 41.8 | 0.00 | 0.00 | 0.00 | 57 | 732.8 |
| 20260903171244 | 13 | 187 | 25.7 | 43.5 | 0.00 | 0.00 | 0.00 | 58 | 732.5 |
| 20260903170744 | 13 | 192 | 24.1 | 38.6 | 0.00 | 0.00 | 0.00 | 61 | 732.5 |
| 20260903170245 | 13 | 193 | 22.5 | 46.7 | 0.00 | 0.00 | 0.00 | 61 | 732.5 |
| 20260903165745 | 13 | 191 | 24.1 | 48.3 | 0.00 | 0.00 | 0.00 | 62 | 732.5 |
| 20260903165247 | 13 | 190 | 22.5 | 43.5 | 0.00 | 0.00 | 0.00 | 63 | 732.5 |
| 20260903164747 | 13 | 190 | 25.7 | 49.9 | 0.00 | 0.00 | 0.00 | 64 | 732.1 |
| 20260903164244 | 13 | 189 | 27.4 | 49.9 | 0.00 | 0.00 | 0.00 | 67 | 732.5 |
| 20260903163744 | 12 | 193 | 20.9 | 40.2 | 0.00 | 0.00 | 0.00 | 68 | 732.5 |
| 20260903163245 | 12 | 197 | 22.5 | 41.8 | 0.00 | 0.00 | 0.00 | 69 | 732.5 |
| 20260903162747 | 12 | 189 | 25.7 | 41.8 | 0.00 | 0.00 | 0.00 | 69 | 732.5 |
| 20260903162245 | 12 | 206 | 16.1 | 38.6 | 0.00 | 0.00 | 0.00 | 69 | 732.1 |
| 20260903161751 | 12 | 189 | 22.5 | 41.8 | 0.00 | 0.00 | 0.00 | 69 | 732.5 |
| 20260903161252 | 12 | 186 | 17.7 | 37.0 | 0.00 | 0.00 | 0.00 | 69 | 732.5 |
| 20260903160749 | 12 | 196 | 24.1 | 45.1 | 0.00 | 0.00 | 0.00 | 67 | 732.1 |
| 20260903160247 | 12 | 199 | 17.7 | 43.5 | 0.00 | 0.00 | 0.00 | 71 | 732.1 |
| 20260903155745 | 12 | 194 | 24.1 | 38.6 | 0.00 | 0.00 | 0.00 | 70 | 732.1 |
| 20260903155244 | 12 | 188 | 22.5 | 38.6 | 0.00 | 0.00 | 0.00 | 70 | 732.5 |
| 20260903154750 | 12 | 195 | 20.9 | 40.2 | 0.00 | 0.00 | 0.00 | 72 | 732.1 |
| 20260903154244 | 12 | 198 | 20.9 | 45.1 | 0.00 | 0.00 | 0.00 | 72 | 732.1 |
| 20260903153744 | 12 | 199 | 19.3 | 38.6 | 0.00 | 0.00 | 0.00 | 73 | 732.5 |
| 20260903153247 | 12 | 190 | 22.5 | 38.6 | 0.00 | 0.00 | 0.00 | 73 | 732.1 |
| 20260903152750 | 12 | 191 | 22.5 | 41.8 | 0.00 | 0.00 | 0.00 | 73 | 732.1 |
| 20260903152244 | 11 | 193 | 22.5 | 37.0 | 0.00 | 0.00 | 0.00 | 73 | 732.1 |
| 20260903151744 | 11 | 190 | 20.9 | 37.0 | 0.00 | 0.00 | 0.00 | 76 | 732.5 |
| 20260903151244 | 11 | 190 | 17.7 | 32.2 | 0.00 | 0.00 | 0.00 | 76 | 732.1 |
| 20260903150747 | 11 | 188 | 20.9 | 37.0 | 0.00 | 0.00 | 0.00 | 76 | 732.1 |
| 20260903150247 | 11 | 192 | 22.5 | 40.2 | 0.00 | 0.00 | 0.00 | 82 | 732.1 |
| 20260903145744 | 11 | 189 | 22.5 | 40.2 | 0.00 | 0.00 | 0.00 | 87 | 732.1 |
| 20260903145245 | 10 | 187 | 24.1 | 35.4 | 0.00 | 0.00 | 0.00 | 87 | 732.1 |
| 20260903144747 | 10 | 189 | 22.5 | 35.4 | 0.00 | 0.00 | 0.00 | 88 | 732.1 |
| 20260903144244 | 10 | 192 | 24.1 | 38.6 | 0.00 | 0.00 | 0.00 | 87 | 732.1 |
| 20260903143744 | 10 | 193 | 24.1 | 40.2 | 0.00 | 0.00 | 0.00 | 88 | 732.1 |
| 20260903143244 | 10 | 188 | 27.4 | 40.2 | 0.00 | 0.00 | 0.00 | 89 | 731.8 |
| 20260903142744 | 10 | 191 | 25.7 | 40.2 | 0.00 | 0.00 | 0.00 | 90 | 731.8 |
| 20260903142247 | 9 | 189 | 25.7 | 43.5 | 0.00 | 0.00 | 0.00 | 90 | 731.8 |
| 20260903141744 | 9 | 191 | 25.7 | 49.9 | 0.00 | 0.00 | 0.00 | 90 | 731.8 |
| 20260903141249 | 9 | 193 | 25.7 | 40.2 | 0.00 | 0.00 | 0.00 | 90 | 731.8 |